Location: Aiyede
(8.4833°N, 4.4500°E)
Time: 13:08:48
(UTC+00:00)

Envisat - Pass Details

Date: 25 November 2020
Orbit: 764 x 766 km, 98.1° (Epoch: 18 January)

Event Time Altitude Azimuth Distance (km) Brightness Sun altitude
Rises 04:13:13 0° 44° (NE) 3,220 6.6 -20.7°
Reaches altitude 10° 04:16:38 10° 69° (ENE) 2,294 6.1 -19.9°
Maximum altitude 04:19:14 14° 100° (E) 2,020 6.3 -19.3°
Drops below altitude 10° 04:21:50 10° 131° (SE) 2,295 6.5 -18.7°
Sets 04:25:14 0° 156° (SSE) 3,221 6.9 -17.9°
